User: anonymous   Login
Location: Allie Creek
(37.5926°N, 89.8526°W)
Time: 03:33:40
(UTC+00:00)
Language:

Helios 1A - Orbit

View from above orbital plane
View from above orbital plane
View from above satellite
View from above satellite

Ground track
Ground track

The orbit data is extracted from the following two-line orbital elements,

1 23605U 95033A   24061.74669499 0.00005100  00000-0  44473-3 0    07
2 23605  98.2962 247.9999 0010740 338.7408  21.2590 14.96880015    09
Epoch (UTC): 01 March 2024 17:55:14
Eccentricity: 0.0010740
inclination: 98.2962°
perigee height: 569 km
apogee height: 584 km
right ascension of ascending node: 247.9999°
argument of perigee: 338.7408°
revolutions per day: 14.96880015
mean anomaly at epoch: 21.2590°
orbit number at epoch: 0

The dashed part of the orbit path shows where the satellite is in the earth's shadow,  

DLR